Regional Weather Roundup
Issued by NWS State College, PA

Home | Current Version | Previous Version | Text Only | Print | Product List | Glossary On
Versions: 1 2 3 4 5 6 7 8 9 10 11 12 13 14 15 16 17 18 19 20 21 22 23 24 25 26 27 28 29 30 31 32 33 34 35 36 37 38 39 40 41 42 43 44 45 46 47 48 49 50
000
ASUS41 KCTP 231310
RWRCTP

REGIONAL WEATHER ROUNDUP
NATIONAL WEATHER SERVICE STATE COLLEGE PA
900 AM EDT TUE SEP 23 2014

Note: "fair" indicates few or no clouds below 12,000 feet with no
significant weather and/or obstructions to visibility.

* = STATION THAT DOES NOT REPORT PRECIPITATION /E.G. RAIN...SNOW...ETC/
    THUNDER OR FOG.

PAZ002>004-007>009-013>016-020>023-029>032-231400-
WESTERN PENNSYLVANIA

CITY           SKY/WX    TMP DP  RH WIND       PRES   REMARKS
ERIE           MOSUNNY   52  44  74 S8        30.34R
MEADVILLE      SUNNY     46  42  86 S5        30.35R
FRANKLIN*      SUNNY     46  39  76 SW3       30.37R
NEW CASTLE       N/A     42  42 100 CALM      30.38R
BEAVER COUNTY  SUNNY     48  43  81 CALM      30.37R
BUTLER*        SUNNY     45  41  87 CALM      30.38R
PITTSBURGH INT MOSUNNY   45  42  89 CALM      30.37R
PITTSBURGH     SUNNY     46  42  86 S3        30.36R
INDIANA*       SUNNY     45  43  93 CALM      30.40R
LATROBE        SUNNY     46  45  93 CALM      30.38R
WASHINGTON CO* SUNNY     45  43  93 CALM      30.38R
$$

PAZ004>006-010>012-017>019-024>028-033>037-041-042-045-046-049>053-231400-
CENTRAL PENNSYLVANIA

CITY           SKY/WX    TMP DP  RH WIND       PRES   REMARKS
BRADFORD       SUNNY     46  42  86 CALM      30.33R
DUBOIS         SUNNY     45  43  93 CALM      30.33S
CLEARFIELD     SUNNY     45  42  89 CALM      30.35R
JOHNSTOWN      SUNNY     44  40  85 CALM      30.36R
ALTOONA        SUNNY     47  42  83 SW3       30.36R
STATE COLLEGE  SUNNY     46  43  87 CALM      30.35R
WILLIAMSPORT   CLOUDY    46  43  89 SW6       30.34R
SELINSGROVE    SUNNY     50  46  86 CALM      30.35R
FT INDIANTOWN  SUNNY     53  47  78 VRB2      30.35R
CAPITAL CITY   SUNNY     54  44  69 W5        30.36R
HARRISBURG     SUNNY     55  45  68 NW8       30.34R
YORK           SUNNY     54  45  71 NW7       30.34R
$$

PAZ038>040-043-044-047-048-054-055-060>062-067>071-231400-
EASTERN PENNSYLVANIA

CITY           SKY/WX    TMP DP  RH WIND       PRES   REMARKS
SCRANTON       SUNNY     51  41  68 CALM      30.33R
MOUNT POCONO   SUNNY     49  40  71 NW10      30.31R
ALLENTOWN      SUNNY     52  42  69 CALM      30.33R
QUAKERTOWN*    SUNNY     54  43  66 N3        30.33R
READING        SUNNY     52  43  71 CALM      30.33R
LANCASTER      SUNNY     54  44  69 N9        30.33R
COATESVILLE    SUNNY     54  43  66 N5        30.34R
POTTSTOWN      SUNNY     52  44  74 VRB3      30.34R
BLUE BELL      SUNNY     55  43  62 NW3       30.33R
DOYLESTOWN     SUNNY     53  42  66 CALM      30.32R
WILLOW GROVE   NOT AVBL
NORTH PHILA    SUNNY     57  41  55 N8        30.34R
PHILADELPHIA   MOSUNNY   57  42  57 N8        30.33R
$$



USA.gov is the U.S. government's official web portal to all federal, state and local government web resources and services.